Location: Unspecified
(0.0000°N, 0.0000°E)
Time: 05:29:44
(UTC+00:00)

Tiros 1 despin weight - Pass Details

Date: 06 October 2020
Orbit: 594 x 641 km, 48.2° (Epoch: 28 October)

Event Time Altitude Azimuth Distance (km) Brightness Sun altitude
Rises 05:46:49 0° 223° (SW) 2,837 ? -0.3°
Reaches altitude 10° 05:49:08 10° 225° (SW) 1,928 ? 0.3°
Maximum altitude 05:53:31 71° 308° (NW) 626 ? 1.4°
Drops below altitude 10° 05:57:53 10° 33° (NNE) 1,912 ? 2.4°
Sets 06:00:10 0° 35° (NE) 2,811 ? 3.0°
